Simultaneous Nadir Overpasses (SNOs) Predictions

Prediction of SNOs near US between AQUA and NPP Satellite Orbit:

Table of predicted SNOs near US for the next 10.0 days since TLE Epoch: 10/25/2013
Index Date (AQUA) Time (AQUA) AQUA Lat,Lon Date (NPP) Time (NPP) NPP Lat,Lon Distance(km) Time Diff (sec)
1 10/25/2013 21:30:55 36.73,-125.00 10/25/2013 21:30:49 36.23,-127.63 242.44 6
2 10/28/2013 09:22:57 25.92,-112.85 10/28/2013 09:16:15 26.00,-113.24 39.78 402
3 10/31/2013 06:30:30 46.56, -65.02 10/31/2013 06:31:41 46.94, -66.93 151.61 71
4 10/31/2013 08:08:26 49.90, -88.41 10/31/2013 08:12:10 50.39, -90.82 180.25 224
5 10/31/2013 09:47:19 49.91,-113.13 10/31/2013 09:53:38 50.50,-116.14 224.49 379
6 11/02/2013 19:06:43 49.99, -92.64 11/02/2013 19:02:28 49.65, -94.47 136.11 255
7 11/02/2013 20:45:36
